VU2EOJ-13 Weather Reports


time (UTC)temp
C
wind
direction
speed
KPH
gust
KPH
rain 1hr
cm
rain 24hr
cm
rain mn
cm
humidity
%
barometer
mb
20221203040755 25 0.0 0.0 0.00 0.00 0.00 65 1013.0
20221203034847 25 0.0 0.0 0.00 0.00 0.00 65 1012.9
20221203022206 24 0.0 0.0 0.00 0.00 0.00 69 1011.9
20221203021234 25 0.0 0.0 0.00 0.00 0.00 67 1011.7
20221203015318 25 0.0 0.0 0.00 0.00 0.00 68 1011.5
20221203014343 25 0.0 0.0 0.00 0.00 0.00 68 1011.4
20221203013409 25 0.0 0.0 0.00 0.00 0.00 69 1011.3
20221203011503 24 0.0 0.0 0.00 0.00 0.00 70 1011.1
20221203010529 25 0.0 0.0 0.00 0.00 0.00 70 1011.0
20221203005557 25 0.0 0.0 0.00 0.00 0.00 70 1011.0
20221203004624 25 0.0 0.0 0.00 0.00 0.00 70 1010.9
20221203003650 25 0.0 0.0 0.00 0.00 0.00 71 1010.8
20221203002721 25 0.0 0.0 0.00 0.00 0.00 71 1010.7
20221203001743 25 0.0 0.0 0.00 0.00 0.00 72 1010.6
20221203000808 25 0.0 0.0 0.00 0.00 0.00 72 1010.7
20221202235836 25 0.0 0.0 0.00 0.00 0.00 72 1010.5
20221202234900 25 0.0 0.0 0.00 0.00 0.00 72 1010.5
20221202233925 25 0.0 0.0 0.00 0.00 0.00 72 1010.4
20221202232950 25 0.0 0.0 0.00 0.00 0.00 71 1010.4
20221202232013 25 0.0 0.0 0.00 0.00 0.00 72 1010.4
20221202231042 25 0.0 0.0 0.00 0.00 0.00 71 1010.4
20221202230105 25 0.0 0.0 0.00 0.00 0.00 71 1010.4
20221202225133 25 0.0 0.0 0.00 0.00 0.00 71 1010.4
20221202224148 25 0.0 0.0 0.00 0.00 0.00 71 1010.4
20221202223209 25 0.0 0.0 0.00 0.00 0.00 71 1010.3
20221202222234 25 0.0 0.0 0.00 0.00 0.00 71 1010.4
20221202221258 25 0.0 0.0 0.00 0.00 0.00 70 1010.3
20221202220325 25 0.0 0.0 0.00 0.00 0.00 70 1010.4
20221202215354 25 0.0 0.0 0.00 0.00 0.00 69 1010.6
20221202214417 25 0.0 0.0 0.00 0.00 0.00 69 1010.5
20221202213449 25 0.0 0.0 0.00 0.00 0.00 69 1010.5
20221202212432 25 0.0 0.0 0.00 0.00 0.00 69 1010.7
20221202211452 26 0.0 0.0 0.00 0.00 0.00 68 1010.9
20221202210514 26 0.0 0.0 0.00 0.00 0.00 67 1010.8
20221202203330 26 0.0 0.0 0.00 0.00 0.00 66 1011.0
20221202202358 26 0.0 0.0 0.00 0.00 0.00 67 1011.1
20221202201423 26 0.0 0.0 0.00 0.00 0.00 67 1011.1
20221202200451 26 0.0 0.0 0.00 0.00 0.00 67 1011.2
20221202195519 26 0.0 0.0 0.00 0.00 0.00 66 1011.2
20221202194542 26 0.0 0.0 0.00 0.00 0.00 64 1011.3
20221202192713 26 0.0 0.0 0.00 0.00 0.00 64 1011.5
20221202191737 26 0.0 0.0 0.00 0.00 0.00 63 1011.4
20221202190748 26 0.0 0.0 0.00 0.00 0.00 62 1011.6
20221202185814 26 0.0 0.0 0.00 0.00 0.00 61 1011.7
20221202184837 26 0.0 0.0 0.00 0.00 0.00 60 1011.8
20221202183834 26 0.0 0.0 0.00 0.00 0.00 60 1011.8
20221202182635 27 0.0 0.0 0.00 0.00 0.00 60 1012.0
20221202172830 27 0.0 0.0 0.00 0.00 0.00 60 1012.3
20221202171812 27 0.0 0.0 0.00 0.00 0.00 59 1012.4
20221202170818 27 0.0 0.0 0.00 0.00 0.00 58 1012.2
20221202164945 27 0.0 0.0 0.00 0.00 0.00 57 1012.2
20221202161530 27 0.0 0.0 0.00 0.00 0.00 58 1012.2
20221202160556 27 0.0 0.0 0.00 0.00 0.00 58 1012.2
20221202155623 27 0.0 0.0 0.00 0.00 0.00 57 1012.1
20221202154649 27 0.0 0.0 0.00 0.00 0.00 57 1012.0
20221202153714 27 0.0 0.0 0.00 0.00 0.00 57 1012.0
20221202152741 27 0.0 0.0 0.00 0.00 0.00 57 1011.9
20221202151807 27 0.0 0.0 0.00 0.00 0.00 57 1011.9
20221202150836 27 0.0 0.0 0.00 0.00 0.00 56 1011.9
20221202145903 27 0.0 0.0 0.00 0.00 0.00 57 1011.8
20221202144929 27 0.0 0.0 0.00 0.00 0.00 57 1011.6
20221202143955 27 0.0 0.0 0.00 0.00 0.00 57 1011.5
20221202142043 27 0.0 0.0 0.00 0.00 0.00 58 1011.2
20221202141111 27 0.0 0.0 0.00 0.00 0.00 58 1011.1
20221202140137 28 0.0 0.0 0.00 0.00 0.00 57 1010.9
20221202135204 28 0.0 0.0 0.00 0.00 0.00 57 1010.8
20221202134231 28 0.0 0.0 0.00 0.00 0.00 53 1010.6
20221202133258 28 0.0 0.0 0.00 0.00 0.00 53 1010.5
20221202132328 28 0.0 0.0 0.00 0.00 0.00 51 1010.3
20221202131350 28 0.0 0.0 0.00 0.00 0.00 52 1010.1
20221202130416 28 0.0 0.0 0.00 0.00 0.00 50 1010.0
20221202125443 28 0.0 0.0 0.00 0.00 0.00 52 1009.8
20221202124510 28 0.0 0.0 0.00 0.00 0.00 51 1009.7
20221202123537 28 0.0 0.0 0.00 0.00 0.00 51 1009.6
20221202122600 28 0.0 0.0 0.00 0.00 0.00 50 1009.5
20221202121626 28 0.0 0.0 0.00 0.00 0.00 50 1009.4
20221202120653 28 0.0 0.0 0.00 0.00 0.00 49 1009.2
20221202115717 29 0.0 0.0 0.00 0.00 0.00 48 1009.1
20221202114741 29 0.0 0.0 0.00 0.00 0.00 47 1009.1
20221202112832 29 0.0 0.0 0.00 0.00 0.00 47 1009.0
20221202111905 29 0.0 0.0 0.00 0.00 0.00 43 1008.8
20221202110921 29 0.0 0.0 0.00 0.00 0.00 40 1008.8
20221202105947 30 0.0 0.0 0.00 0.00 0.00 41 1008.8
20221202105011 30 0.0 0.0 0.00 0.00 0.00 39 1008.8
20221202104038 30 0.0 0.0 0.00 0.00 0.00 41 1008.7
20221202095241 30 0.0 0.0 0.00 0.00 0.00 42 1008.8
20221202094307 30 0.0 0.0 0.00 0.00 0.00 41 1008.8
20221202091417 30 0.0 0.0 0.00 0.00 0.00 41 1009.0
20221202090444 30 0.0 0.0 0.00 0.00 0.00 40 1009.1
20221202085513 30 0.0 0.0 0.00 0.00 0.00 40 1009.1
20221202084536 30 0.0 0.0 0.00 0.00 0.00 37 1009.2
20221202080700 29 0.0 0.0 0.00 0.00 0.00 41 1009.9
20221202075732 29 0.0 0.0 0.00 0.00 0.00 46 1010.1
20221202074750 29 0.0 0.0 0.00 0.00 0.00 46 1010.3
20221202073813 28 0.0 0.0 0.00 0.00 0.00 47 1010.5
20221202072841 28 0.0 0.0 0.00 0.00 0.00 48 1010.8
20221202071909 28 0.0 0.0 0.00 0.00 0.00 47 1010.9
20221202070931 28 0.0 0.0 0.00 0.00 0.00 48 1011.2